ギブス彗星

313P/Gibbs (2020)

English version
Home page
Updated on February 21, 2021

---------------------------------------------------------------------

・ プロフィール

・ 軌道要素

Epoch 2020 Apr. 21.0 TT = JDT 2458960.5
T 2020 Apr. 15.16870 TT                                 Rudenko
q   2.4188905            (2000.0)            P               Q
n   0.17537438     Peri.  254.60694     +0.98297041     -0.01477844
a   3.1610057      Node   105.97199     +0.07787899     +0.93632429
e   0.2347719      Incl.   10.98334     -0.16644529     +0.35082533
P   5.62
From 159 observations 2003 Sept. 22-2020 Dec. 14, mean residual 0".7.

・ 光度変化

        m1 = 14.5 + 5 logΔ + 10.0 log r            [    ,-680]  (              〜2018年 6月 5日)
        m1 =  5.0 + 5 logΔ + 25   log r(t + 1000)  [-680,-310]  (2018年 6月 5日〜2019年 6月10日)
        m1 = 14.5 + 5 logΔ + 10.0 log r            [-310,    ]  (2019年 6月10日〜              )

        ※ 灰色の曲線は、m1 = 14.5 + 5 logΔ + 10.0 log r の光度曲線です。

---------------------------------------------------------------------

軌道要素はM.P.E.C. 2021-B143に掲載されたものです。
光度グラフはComet for Windowsで作成したものです。

---------------------------------------------------------------------

Copyright(C) Seiichi Yoshida (comet@aerith.net). All rights reserved.